Theta_e
288 288 288 287 287 284 287 289 289 289 290 291 291 291 293 292 292 295 295 297 297 297 298 300 303 305 308 313 313 313 313 312
287 288 287 287 285 284 287 289 289 290 291 291 290 291 293 294 295 297 296 297 297 297 300 302 303 305 309 313 313 312 312 313
287 287 286 285 284 286 287 288 289 290 291 291 290 291 293 294 296 297 297 298 298 300 301 303 305 306 310 313 313 312 311 311
286 285 285 284 283 285 287 288 288 290 291 291 290 290 295 296 296 297 298 299 300 300 301 303 305 308 311 313 312 312 311 311
285 285 285 284 283 285 286 288 288 289 291 290 289 294 295 296 296 297 298 300 302 302 304 306 308 310 311 311 310 309 309 310
284 285 284 283 283 285 286 287 288 289 289 289 293 295 295 295 295 296 298 299 300 301 301 302 304 305 307 306 305 305 303 302
285 285 284 283 283 286 285 286 288 288 288 292 294 294 294 294 295 296 296 297 298 297 297 296 297 295 297 300 300 299 299 296
287 286 286 285 284 286 286 286 287 287 287 292 292 292 293 294 294 294 295 295 295 295 295 294 294 295 295 294 297 296 296 295
289 287 286 285 284 286 286 287 287 287 290 291 291 290 289 290 293 293 294 294 294 293 293 293 293 293 293 292 294 293 292 293
292 289 287 285 286 287 286 285 285 286 291 290 290 289 289 289 290 291 292 291 291 292 292 291 291 292 293 293 292 289 288 289
290 287 286 285 287 287 286 286 285 286 289 289 289 289 289 288 287 287 288 287 288 288 288 287 290 291 292 292 290 287 286 286
288 287 287 286 288 287 286 286 287 286 288 288 289 289 288 288 287 287 287 287 287 286 286 287 288 290 290 290 288 286 285 284
287 286 285 287 288 286 287 287 286 287 288 287 287 287 287 287 286 286 287 286 285 285 284 285 286 288 290 289 288 288 285 283
285 283 284 287 288 286 286 286 287 287 287 287 287 287 286 287 286 286 286 286 283 284 282 281 283 286 289 288 287 286 283 285
282 282 284 286 286 287 285 287 288 287 287 286 287 286 286 286 286 287 286 284 282 281 281 280 280 283 284 285 285 285 284 284
282 282 284 286 284 285 286 288 288 287 287 286 287 287 286 284 286 286 284 287 284 282 282 281 280 282 283 282 282 283 283 278
283 283 284 285 284 286 287 288 288 287 287 287 287 286 286 285 284 288 288 288 287 285 284 278 284 286 286 286 286 285 284 274
283 284 284 285 285 286 287 288 288 288 287 287 286 286 285 284 285 283 285 288 287 287 287 287 286 286 287 287 286 287 284 281
283 283 284 285 285 286 287 288 288 287 287 287 287 286 285 285 283 284 283 282 281 284 286 288 287 288 288 288 286 281 281 280
284 283 284 285 285 286 288 288 288 287 287 287 287 286 286 284 283 282 279 281 281 283 285 285 288 288 288 287 283 282 281 280
Wind_Speed
7 8 6 6 6 7 6 6 5 4 3 2 1 3 3 4 4 5 4 3 3 4 4 4 3 3 1 2 5 8 6 7
7 6 7 6 6 7 6 6 4 4 3 2 1 3 5 5 4 4 3 4 3 3 3 3 3 2 2 3 7 9 9 8
8 7 7 7 7 7 6 6 5 4 3 3 1 3 5 5 5 3 4 3 3 2 2 2 2 3 2 7 8 7 9 9
7 8 7 7 7 7 7 6 5 4 4 2 1 4 4 4 4 4 3 2 2 3 4 4 4 2 1 5 8 6 6 7
7 8 7 7 7 7 7 6 5 4 4 3 1 4 3 3 4 2 0 3 3 3 4 3 2 2 4 5 6 6 5 6
9 9 8 7 7 6 6 6 5 5 4 4 3 2 3 3 2 2 4 5 5 6 5 5 5 3 6 6 6 6 6 6
7 9 11 10 10 8 7 7 6 5 5 3 4 1 1 2 2 3 5 5 6 7 7 8 5 8 10 8 7 6 6 7
12 13 12 12 11 11 9 7 6 5 5 4 3 1 3 0 3 4 5 5 7 7 7 8 6 12 14 13 8 8 7 7
11 11 11 9 8 9 8 9 7 6 5 4 3 2 4 2 4 4 4 6 6 7 6 8 7 14 17 16 11 10 10 8
10 11 13 15 12 12 9 8 8 7 5 5 5 4 4 5 4 4 6 6 6 6 8 9 8 12 15 14 11 12 11 9
10 9 14 14 14 14 12 10 10 8 7 6 6 5 6 6 5 3 5 5 6 8 8 8 9 12 12 11 8 12 9 9
10 13 15 17 17 15 13 13 11 7 7 6 6 6 4 5 6 6 8 9 8 9 7 8 7 10 14 12 8 8 8 7
8 9 12 16 17 15 15 10 10 8 8 7 6 6 4 5 4 6 8 10 8 9 7 6 7 10 14 17 15 12 10 8
6 7 9 12 15 16 12 12 12 11 9 8 8 7 6 6 6 6 6 7 5 5 7 6 5 7 17 19 19 17 11 7
7 8 9 9 9 11 13 13 13 12 10 9 9 9 6 4 3 4 6 6 6 6 6 5 5 5 6 8 10 17 12 12
6 6 8 9 6 10 13 15 13 11 10 9 8 9 8 4 3 3 1 6 10 6 8 9 6 5 8 10 8 7 9 10
6 6 8 9 9 11 12 15 14 12 10 9 8 7 7 6 5 8 6 6 7 12 8 2 10 17 15 15 17 21 15 4
9 8 10 11 11 11 12 13 13 13 11 9 9 8 8 7 7 7 6 8 8 7 8 11 18 17 17 20 20 15 9 6
7 8 10 11 12 12 13 13 12 10 12 9 9 8 8 8 8 7 8 7 3 7 8 13 15 16 19 18 12 6 6 5
6 8 10 12 13 13 14 15 13 10 10 9 8 7 8 7 7 7 7 8 8 7 8 9 16 16 15 9 5 7 6 6
Wind_Direction
187 191 175 167 158 152 171 184 190 210 207 191 48 321 295 284 276 277 282 278 292 305 320 330 320 293 220 147 130 136 125 131
180 183 165 146 152 155 170 173 199 207 214 152 76 304 284 269 273 270 272 277 271 275 291 301 315 321 296 72 139 127 129 148
164 164 161 160 158 163 167 181 200 202 205 156 128 292 290 277 283 284 281 270 277 274 256 255 225 214 299 148 152 132 127 120
154 173 175 171 167 167 167 191 189 203 192 172 264 289 282 302 296 273 250 239 232 200 205 191 183 154 129 104 125 154 128 128
172 176 181 176 169 171 171 179 178 203 180 226 246 282 316 302 281 257 98 92 123 183 164 161 159 130 146 126 117 116 121 126
183 179 180 178 170 174 168 166 175 195 171 248 265 311 312 289 316 51 57 68 70 77 59 54 58 65 95 103 109 112 97 81
184 173 185 185 177 171 175 167 169 187 179 220 283 1 359 283 94 56 86 85 83 69 69 57 39 51 80 97 91 82 92 95
199 190 184 186 174 175 180 151 163 181 196 158 291 353 95 265 81 92 73 75 79 74 76 73 68 85 91 87 87 85 81 91
187 180 178 166 166 145 164 157 157 177 191 148 179 170 95 85 97 75 78 82 87 84 89 89 75 91 94 91 89 81 66 64
180 174 164 165 162 155 161 160 156 175 180 155 149 166 125 94 85 81 103 91 81 90 94 92 73 83 98 101 94 82 69 56
154 145 157 160 156 158 167 169 172 176 170 152 142 153 137 124 93 57 74 90 85 73 63 67 77 66 77 95 103 94 86 64
152 168 169 156 154 166 167 184 170 158 143 141 138 135 124 115 125 118 106 92 82 79 54 63 65 64 66 68 92 102 96 83
148 158 160 160 158 163 177 169 152 146 141 136 133 125 113 115 115 102 115 106 101 102 82 53 58 73 78 82 86 95 101 95
135 136 159 168 167 163 166 156 151 144 143 140 132 129 124 135 133 120 112 114 106 101 98 83 57 74 87 95 94 91 92 103
131 145 160 173 171 157 153 157 155 148 146 144 141 135 118 98 103 130 128 122 115 112 112 112 98 98 99 100 99 100 100 100
151 155 169 167 153 144 156 156 156 149 147 148 146 147 132 106 140 136 340 161 150 152 149 143 150 171 150 138 132 130 122 114
158 153 162 171 154 155 163 163 156 154 157 154 150 146 138 136 106 60 72 104 111 135 140 69 118 142 136 129 130 132 137 79
186 174 164 169 163 163 166 166 165 160 157 149 149 149 144 133 133 128 71 80 87 113 119 129 146 148 144 135 132 130 113 111
163 168 173 173 172 168 167 168 167 154 155 157 154 152 150 150 144 142 140 129 90 81 110 125 137 138 137 135 110 96 74 97
176 178 177 181 177 168 168 171 172 155 158 155 153 150 149 148 139 132 131 135 134 124 106 122 133 132 129 117 118 124 118 117